Weather observations for the past three days for
Alexandria, Chandler Field
Metric (Imperial)
Date Time (cdt) Wind (kph) Vis. (km) Weather Sky Cond. Temperature (ºC) Relative Humidity Wind Chill (°C) Heat Index (°C) Pressure Precipitation (cm)
Air Dwpt 6 hour altimeter (cm) sea level (mb) 1 hr 3 hr 6 hr
Max. Min.
06 15:53 S 26 16.09 Overcast OVC013 23.9 20.6 82% 24 76.3 1016.7
06 14:53 S 26 G 43 16.09 Overcast OVC016 25 20.6 77% 26 76.33 1017.1
06 13:53 S 31 16.09 Overcast SCT017 OVC029 27.2 21.1 69% 29 76.3 1016.6
06 12:53 S 24 G 37 16.09 Mostly Cloudy BKN013 BKN019 26.7 21.1 26.7 20.6 71% 28 76.33 1016.9
06 11:53 SE 19 16.09 Overcast OVC011 24.4 20.6 79% 25 76.35 1017.6
06 10:53 SE 15 16.09 Overcast OVC009 22.8 20 84% 76.4 1017.9
06 09:53 SE 15 16.09 Overcast OVC007 22.2 20 87% 76.38 1017.9
06 08:53 SE 15 16.09 Overcast OVC006 21.7 20 90% 76.4 1018.1
06 07:53 SE 11 16.09 Overcast OVC006 21.1 20 93% 76.38 1017.5
06 06:53 SE 15 16.09 Overcast SCT006 OVC019 20.6 19.4 21.1 20 93% 76.35 1017.2
06 05:53 SE 11 16.09 Overcast OVC022 20.6 19.4 93% 76.35 1017.3
06 04:53 S 13 16.09 Fair CLR 20 18.9 93% 76.35 1017.1
06 03:53 SE 15 16.09 Fair CLR 20 19.4 96% 76.3 1016.6
06 02:53 SE 19 16.09 Fair CLR 20 18.9 93% 76.28 1016.4
06 01:53 E 15 16.09 Fair CLR 20.6 18.9 90% 76.33 1016.8
06 00:53 SE 15 16.09 A Few Clouds FEW070 21.1 18.9 27.2 21.1 87% 76.35 1017.5
05 23:53 SE 13 16.09 Fair CLR 21.1 18.9 87% 76.38 1017.7
05 22:53 E 15 16.09 Fair CLR 21.7 18.3 81% 76.35 1017.4
05 21:53 E 20 16.09 Fair CLR 22.8 18.9 79% 76.33 1017.2
05 20:53 E 15 16.09 Fair CLR 23.9 18.9 74% 25 76.3 1017.1
05 18:53 SE 20 16.09 Fair CLR 27.2 19.4 29.4 24.4 62% 29 76.17 1014.9
05 17:53 SE 20 16.09 Fair CLR 28.9 20 59% 31 76.15 1014.7
05 16:53 E 26 G 41 16.09 Fair CLR 28.9 20 59% 31 76.15 1014.5
05 15:53 NE 15 16.09 Fair CLR 28.9 20.6 61% 31 76.25 1015.9
05 12:53 SE 19 16.09 Overcast OVC012 23.9 18.3 24.4 16.7 71% 25 76.35 1017.4
05 11:53 E 19 16.09 Overcast OVC012 22.2 17.2 73% 76.38 1017.9
05 10:53 E 19 16.09 Overcast OVC011 21.7 16.7 73% 76.38 1017.7
05 09:53 E 20 16.09 Overcast OVC004 18.9 16.1 84% 76.35 1017.6
05 08:53 E 13 6.44 Fog/Mist OVC003 17.2 16.7 97% 76.38 1018.0
05 07:53 E 17 2.41 Fog/Mist OVC002 16.7 16.7 100% 76.33 1017.2
05 06:53 E 15 1.21 Fog/Mist VV002 16.7 16.1 18.9 16.1 96% 76.28 1016.4
05 05:53 E 9 0.80 Fog VV002 16.7 16.7 100% 76.28 1016.2
05 04:53 E 15 1.61 Fog/Mist VV002 17.2 16.7 97% 76.23 1015.6
05 02:53 E 19 14.48 Partly Cloudy SCT006 17.2 16.7 97% 76.23 1015.6
05 01:53 E 17 16.09 Overcast OVC004 18.3 17.2 93% 76.25 1016.2
05 00:53 E 15 14.48 Mostly Cloudy BKN006 18.9 17.8 26.7 18.3 93% 76.3 1016.6
04 23:53 E 22 16.09 Fair CLR 19.4 18.3 93% 76.23 1015.9
04 22:53 E 15 16.09 Fair CLR 20 18.9 93% 76.25 1016.2
04 21:53 E 20 16.09 Fair CLR 21.7 19.4 87% 76.23 1015.9
04 20:53 E 13 16.09 Fair CLR 23.3 19.4 79% 76.15 1014.7
04 19:53 E 15 16.09 Fair CLR 24.4 19.4 74% 25 76.12 1014.4
04 18:53 E 15 16.09 Fair CLR 26.7 19.4 30 25 64% 28 76.12 1014.3
04 17:53 E 15 16.09 Fair CLR 29.4 19.4 55% 31 76.1 1013.9
04 16:53 E 13 16.09 Fair CLR 29.4 18.9 53% 31 76.1 1013.7
04 15:53 NE 15 16.09 Fair CLR 30 19.4 53% 32 76.1 1013.7
04 14:53 NE 13 16.09 Fair CLR 28.9 20 59% 31 76.1 1013.7
04 13:53 NE 15 16.09 Fair CLR 26.7 20 67% 28 76.1 1013.9
04 12:53 E 13 16.09 Overcast OVC013 25 20 25.6 18.3 74% 26 76.12 1014.3
04 11:53 E 15 16.09 Overcast OVC007 23.3 20 82% 76.12 1014.1
04 10:53 NE 6 16.09 Overcast OVC005 20.6 18.9 90% 76.07 1013.7
04 09:53 NE 9 2.82 Fog/Mist OVC002 18.9 18.3 96% 76.07 1013.5
04 08:53 NE 9 0.40 Fog VV002 18.3 18.3 100% 76.02 1012.8
04 07:53 E 6 0.40 Fog VV002 18.3 17.8 97% 76 1012.5
04 06:53 E 7 0.40 Fog VV002 18.3 17.8 22.2 18.3 97% 75.92 1011.4
04 05:53 E 9 1.61 Fog/Mist OVC003 18.3 18.3 100% 75.9 1011.0
04 04:53 NE 11 16.09 Overcast OVC005 18.9 17.8 93% 75.87 1010.6
04 03:53 NE 11 16.09 Overcast OVC007 18.9 17.8 93% 75.84 1010.2
04 02:53 E 15 16.09 Fair CLR 20 18.9 93% 75.77 1009.2
04 01:53 NE 15 14.48 Fair CLR 22.2 20.6 91% 75.77 1009.2
04 00:53 SE 11 16.09 Fair CLR 23.3 21.1 30.6 23.3 88% 75.74 1008.7
03 23:53 E 11 16.09 Fair CLR 23.9 21.7 88% 24 75.69 1008.1
03 22:53 E 9 16.09 Fair CLR 24.4 21.7 85% 25 75.69 1008.2
03 21:53 E 11 16.09 Fair CLR 26.1 21.7 77% 28 75.67 1007.7
03 20:53 NE 9 16.09 Partly Cloudy FEW060 FEW080 SCT100 26.7 21.7 74% 29 75.67 1007.9
03 19:53 E 13 16.09 Partly Cloudy SCT080 28.3 21.1 65% 31 75.62 1007.4
03 18:53 SE 15 16.09 Fair CLR 30.6 20.6 32.2 30 55% 33 75.59 1006.9
03 17:53 SE 20 16.09 Fair CLR 31.7 20.6 52% 34 75.54 1006.3
03 16:53 SE 22 G 35 16.09 Fair CLR 31.7 20.6 52% 34 75.57 1006.5
Date Time (cdt) Wind (kph) Vis. (km) Weather Sky Cond. Air Dwpt Max. Min. Relative Humidity Wind Chill (°C) Heat Index (°C) altimeter (cm) sea level (mb) 1 hr 3 hr 6 hr
6 hour
Temperature (ºC) Pressure Precipitation (cm)